| time (UTC) | temp F | wind direction | speed MPH | gust MPH | rain 1hr in | rain 24hr in | rain mn in | humidity % | barometer mb |
| 20260507022904 | 55 | 155 | 3.0 | 5.0 | 0.00 | 0.00 | 0.00 | 85 | 1020.8 |
| 20260507022404 | 55 | 175 | 4.0 | 5.0 | 0.00 | 0.00 | 0.00 | 84 | 1020.8 |
| 20260507021904 | 55 | 164 | 2.0 | 6.0 | 0.00 | 0.00 | 0.00 | 85 | 1020.7 |
| 20260507021404 | 55 | 158 | 2.0 | 6.0 | 0.00 | 0.00 | 0.00 | 84 | 1020.7 |
| 20260507020904 | 55 | 163 | 6.0 | 8.0 | 0.00 | 0.00 | 0.00 | 84 | 1020.8 |
| 20260507020405 | 55 | 182 | 3.0 | 8.0 | 0.00 | 0.00 | 0.00 | 84 | 1020.8 |
| 20260507015904 | 55 | 150 | 6.0 | 7.0 | 0.00 | 0.00 | 0.00 | 84 | 1020.8 |
| 20260507015404 | 56 | 184 | 7.0 | 7.0 | 0.00 | 0.00 | 0.00 | 84 | 1020.8 |
| 20260507014904 | 56 | 360 | 6.0 | 8.0 | 0.00 | 0.00 | 0.00 | 83 | 1020.8 |
| 20260507014304 | 56 | 145 | 3.0 | 8.0 | 0.00 | 0.00 | 0.00 | 83 | 1020.9 |
| 20260507013804 | 56 | 203 | 5.0 | 7.0 | 0.00 | 0.00 | 0.00 | 83 | 1020.9 |
| 20260507013304 | 56 | 190 | 7.0 | 7.0 | 0.00 | 0.00 | 0.00 | 82 | 1020.8 |
| 20260507012804 | 57 | 163 | 7.0 | 8.0 | 0.00 | 0.00 | 0.00 | 84 | 1020.8 |
| 20260507012204 | 57 | 223 | 7.0 | 8.0 | 0.00 | 0.00 | 0.00 | 83 | 1020.8 |
| 20260507011704 | 57 | 223 | 5.0 | 7.0 | 0.00 | 0.00 | 0.00 | 83 | 1020.9 |
| 20260507010505 | 57 | 200 | 7.0 | 9.0 | 0.00 | 0.00 | 0.00 | 82 | 1020.9 |
| 20260507010004 | 57 | 211 | 8.0 | 9.0 | 0.00 | 0.00 | 0.00 | 81 | 1020.9 |
| 20260507005504 | 58 | 179 | 5.0 | 7.0 | 0.00 | 0.00 | 0.00 | 81 | 1020.9 |
| 20260507005004 | 58 | 221 | 2.0 | 7.0 | 0.00 | 0.00 | 0.00 | 82 | 1020.9 |
| 20260507004504 | 58 | 207 | 7.0 | 7.0 | 0.00 | 0.00 | 0.00 | 81 | 1020.9 |
| 20260507004004 | 58 | 153 | 4.0 | 8.0 | 0.00 | 0.00 | 0.00 | 82 | 1020.9 |
| 20260507003504 | 58 | 207 | 6.0 | 9.0 | 0.00 | 0.00 | 0.00 | 80 | 1021.0 |
| 20260507003005 | 58 | 227 | 8.0 | 9.0 | 0.00 | 0.00 | 0.00 | 81 | 1020.9 |
| 20260507002504 | 58 | 184 | 4.0 | 10.0 | 0.00 | 0.00 | 0.00 | 81 | 1020.9 |
| 20260507002004 | 58 | 244 | 5.0 | 10.0 | 0.00 | 0.00 | 0.00 | 81 | 1020.9 |
| 20260507001505 | 58 | 202 | 10.0 | 10.0 | 0.00 | 0.00 | 0.00 | 81 | 1020.8 |
| 20260507000904 | 58 | 216 | 6.0 | 6.0 | 0.00 | 0.00 | 0.00 | 82 | 1020.9 |
| 20260507000405 | 58 | 200 | 3.0 | 9.0 | 0.00 | 0.00 | 0.00 | 83 | 1020.8 |
| 20260506235904 | 58 | 211 | 4.0 | 9.0 | 0.00 | 0.00 | 0.00 | 81 | 1020.8 |
| 20260506235004 | 58 | 360 | 8.0 | 9.0 | 0.00 | 0.00 | 0.00 | 80 | 1020.8 |
| 20260506234504 | 58 | 209 | 6.0 | 9.0 | 0.00 | 0.00 | 0.00 | 81 | 1020.8 |
| 20260506233404 | 59 | 192 | 8.0 | 9.0 | 0.00 | 0.00 | 0.00 | 81 | 1020.8 |
| 20260506232904 | 59 | 360 | 9.0 | 9.0 | 0.00 | 0.00 | 0.00 | 80 | 1020.8 |
| 20260506232404 | 59 | 360 | 4.0 | 11.0 | 0.00 | 0.00 | 0.00 | 81 | 1020.8 |
| 20260506231704 | 59 | 360 | 5.0 | 11.0 | 0.00 | 0.00 | 0.00 | 80 | 1020.8 |
| 20260506231204 | 59 | 360 | 5.0 | 9.0 | 0.00 | 0.00 | 0.00 | 80 | 1020.7 |
| 20260506230705 | 60 | 206 | 6.0 | 8.0 | 0.00 | 0.00 | 0.00 | 80 | 1020.7 |
| 20260506230204 | 60 | 202 | 3.0 | 7.0 | 0.00 | 0.00 | 0.00 | 80 | 1020.8 |
| 20260506225604 | 60 | 221 | 4.0 | 5.0 | 0.00 | 0.00 | 0.00 | 80 | 1020.8 |
| 20260506225104 | 60 | 193 | 3.0 | 6.0 | 0.00 | 0.00 | 0.00 | 80 | 1020.8 |
| 20260506224304 | 61 | 210 | 5.0 | 6.0 | 0.00 | 0.00 | 0.00 | 80 | 1020.8 |
| 20260506223804 | 60 | 154 | 4.0 | 6.0 | 0.00 | 0.00 | 0.00 | 78 | 1020.9 |
| 20260506223104 | 61 | 184 | 3.0 | 6.0 | 0.00 | 0.00 | 0.00 | 79 | 1020.9 |
| 20260506222504 | 61 | 149 | 6.0 | 6.0 | 0.00 | 0.00 | 0.00 | 78 | 1020.9 |
| 20260506222005 | 61 | 190 | 1.0 | 4.0 | 0.00 | 0.00 | 0.00 | 77 | 1020.9 |
| 20260506221505 | 61 | 201 | 4.0 | 7.0 | 0.00 | 0.00 | 0.00 | 78 | 1020.9 |
| 20260506221004 | 61 | 171 | 1.0 | 7.0 | 0.00 | 0.00 | 0.00 | 77 | 1020.9 |
| 20260506220504 | 62 | 203 | 7.0 | 7.0 | 0.00 | 0.00 | 0.00 | 78 | 1020.9 |
| 20260506220005 | 62 | 195 | 5.0 | 5.0 | 0.00 | 0.00 | 0.00 | 78 | 1020.9 |
| 20260506215505 | 62 | 158 | 2.0 | 5.0 | 0.00 | 0.00 | 0.00 | 78 | 1020.9 |
| 20260506215004 | 62 | 187 | 3.0 | 5.0 | 0.00 | 0.00 | 0.00 | 77 | 1020.9 |
| 20260506214505 | 62 | 132 | 2.0 | 3.0 | 0.00 | 0.00 | 0.00 | 79 | 1020.9 |
| 20260506214004 | 62 | 144 | 2.0 | 4.0 | 0.00 | 0.00 | 0.00 | 77 | 1020.9 |
| 20260506213304 | 62 | 176 | 2.0 | 4.0 | 0.00 | 0.00 | 0.00 | 76 | 1020.9 |
| 20260506212704 | 62 | 360 | 1.0 | 4.0 | 0.00 | 0.00 | 0.00 | 76 | 1020.9 |
| 20260506212204 | 62 | 360 | 1.0 | 4.0 | 0.00 | 0.00 | 0.00 | 78 | 1020.9 |
| 20260506211704 | 61 | 360 | 2.0 | 5.0 | 0.00 | 0.00 | 0.00 | 77 | 1020.9 |
| 20260506211004 | 62 | 360 | 3.0 | 5.0 | 0.00 | 0.00 | 0.00 | 76 | 1020.8 |
| 20260506210404 | 61 | 360 | 1.0 | 6.0 | 0.00 | 0.00 | 0.00 | 80 | 1020.9 |
| 20260506205704 | 61 | 159 | 1.0 | 6.0 | 0.00 | 0.00 | 0.00 | 78 | 1020.8 |
| 20260506205204 | 61 | 171 | 4.0 | 4.0 | 0.00 | 0.00 | 0.00 | 77 | 1020.8 |
| 20260506204704 | 61 | 360 | 3.0 | 3.0 | 0.00 | 0.00 | 0.00 | 78 | 1020.9 |
| 20260506204204 | 60 | 182 | 1.0 | 6.0 | 0.00 | 0.00 | 0.00 | 81 | 1020.8 |
| 20260506203704 | 60 | 198 | 1.0 | 6.0 | 0.00 | 0.00 | 0.00 | 80 | 1020.8 |
| 20260506203204 | 60 | 211 | 5.0 | 6.0 | 0.00 | 0.00 | 0.00 | 79 | 1020.8 |
| 20260506202704 | 60 | 173 | 2.0 | 6.0 | 0.00 | 0.00 | 0.00 | 80 | 1020.7 |
| 20260506202004 | 60 | 195 | 6.0 | 6.0 | 0.00 | 0.00 | 0.00 | 80 | 1020.8 |
| 20260506201504 | 60 | 194 | 2.0 | 9.0 | 0.00 | 0.00 | 0.00 | 80 | 1020.8 |
| 20260506201004 | 60 | 215 | 3.0 | 9.0 | 0.00 | 0.00 | 0.00 | 78 | 1020.8 |
| 20260506200404 | 60 | 360 | 6.0 | 6.0 | 0.00 | 0.00 | 0.00 | 82 | 1020.8 |
| 20260506195704 | 60 | 207 | 5.0 | 7.0 | 0.00 | 0.00 | 0.00 | 81 | 1020.9 |
| 20260506195204 | 60 | 206 | 6.0 | 7.0 | 0.00 | 0.00 | 0.00 | 80 | 1020.9 |
| 20260506194704 | 60 | 198 | 5.0 | 5.0 | 0.00 | 0.00 | 0.00 | 78 | 1021.0 |
| 20260506194204 | 60 | 360 | 3.0 | 5.0 | 0.00 | 0.00 | 0.00 | 77 | 1020.9 |
| 20260506193704 | 60 | 360 | 4.0 | 6.0 | 0.00 | 0.00 | 0.00 | 76 | 1020.9 |
| 20260506193204 | 61 | 174 | 2.0 | 6.0 | 0.00 | 0.00 | 0.00 | 76 | 1020.9 |
| 20260506192704 | 62 | 179 | 6.0 | 6.0 | 0.00 | 0.00 | 0.00 | 74 | 1020.9 |
| 20260506192204 | 63 | 161 | 1.0 | 5.0 | 0.00 | 0.00 | 0.00 | 74 | 1020.9 |
| 20260506191704 | 62 | 134 | 1.0 | 6.0 | 0.00 | 0.00 | 0.00 | 77 | 1020.8 |
| 20260506191204 | 62 | 132 | 5.0 | 6.0 | 0.00 | 0.00 | 0.00 | 79 | 1020.9 |
| 20260506190704 | 61 | 157 | 6.0 | 6.0 | 0.00 | 0.00 | 0.00 | 77 | 1020.9 |
| 20260506190204 | 60 | 360 | 3.0 | 6.0 | 0.00 | 0.00 | 0.00 | 77 | 1020.7 |
| 20260506185704 | 60 | 171 | 4.0 | 6.0 | 0.00 | 0.00 | 0.00 | 78 | 1020.7 |
| 20260506185204 | 60 | 146 | 2.0 | 4.0 | 0.00 | 0.00 | 0.00 | 79 | 1020.8 |
| 20260506184704 | 60 | 148 | 1.0 | 5.0 | 0.00 | 0.00 | 0.00 | 81 | 1020.9 |
| 20260506184204 | 59 | 169 | 2.0 | 5.0 | 0.00 | 0.00 | 0.00 | 80 | 1020.9 |
| 20260506183704 | 59 | 175 | 2.0 | 5.0 | 0.00 | 0.00 | 0.00 | 80 | 1020.9 |
| 20260506183204 | 59 | 148 | 4.0 | 5.0 | 0.00 | 0.00 | 0.00 | 79 | 1020.8 |
| 20260506182704 | 59 | 182 | 3.0 | 6.0 | 0.00 | 0.00 | 0.00 | 82 | 1020.8 |
| 20260506181604 | 60 | 360 | 4.0 | 6.0 | 0.00 | 0.00 | 0.00 | 78 | 1020.7 |
| 20260506181104 | 60 | 360 | 4.0 | 4.0 | 0.00 | 0.00 | 0.00 | 80 | 1020.7 |
| 20260506180204 | 59 | 150 | 0.0 | 2.0 | 0.00 | 0.00 | 0.00 | 81 | 1020.7 |
| 20260506175704 | 58 | 149 | 0.0 | 5.0 | 0.00 | 0.00 | 0.00 | 81 | 1020.6 |
| 20260506175204 | 58 | 196 | 2.0 | 5.0 | 0.00 | 0.00 | 0.00 | 82 | 1020.7 |
| 20260506174704 | 58 | 173 | 1.0 | 4.0 | 0.00 | 0.00 | 0.00 | 83 | 1020.8 |
| 20260506174204 | 57 | 360 | 0.0 | 4.0 | 0.00 | 0.00 | 0.00 | 85 | 1020.8 |
| 20260506173604 | 56 | 205 | 2.0 | 6.0 | 0.00 | 0.00 | 0.00 | 86 | 1020.7 |
| 20260506173104 | 56 | 163 | 5.0 | 6.0 | 0.00 | 0.00 | 0.00 | 85 | 1020.8 |
| 20260506172604 | 56 | 207 | 6.0 | 6.0 | 0.00 | 0.00 | 0.00 | 84 | 1020.7 |
| 20260506172104 | 56 | 162 | 2.0 | 6.0 | 0.00 | 0.00 | 0.00 | 85 | 1020.6 |
| 20260506171604 | 56 | 211 | 3.0 | 6.0 | 0.00 | 0.00 | 0.00 | 84 | 1020.7 |
| 20260506171104 | 56 | 151 | 4.0 | 5.0 | 0.00 | 0.00 | 0.00 | 83 | 1020.5 |
| 20260506170604 | 56 | 158 | 0.0 | 5.0 | 0.00 | 0.00 | 0.00 | 82 | 1020.5 |
| 20260506170105 | 56 | 181 | 1.0 | 3.0 | 0.00 | 0.00 | 0.00 | 83 | 1020.5 |
| 20260506165404 | 56 | 360 | 1.0 | 4.0 | 0.00 | 0.00 | 0.00 | 85 | 1020.5 |
| 20260506164304 | 55 | 169 | 1.0 | 4.0 | 0.00 | 0.00 | 0.00 | 86 | 1020.5 |
| 20260506163804 | 55 | 202 | 2.0 | 2.0 | 0.00 | 0.00 | 0.00 | 86 | 1020.5 |
| 20260506163304 | 55 | 206 | 2.0 | 2.0 | 0.00 | 0.00 | 0.00 | 86 | 1020.3 |
| 20260506162804 | 55 | 206 | 2.0 | 3.0 | 0.00 | 0.00 | 0.00 | 87 | 1020.3 |
| 20260506162306 | 55 | 195 | 2.0 | 5.0 | 0.00 | 0.00 | 0.00 | 86 | 1020.2 |
| 20260506161804 | 54 | 360 | 3.0 | 5.0 | 0.00 | 0.00 | 0.00 | 87 | 1020.3 |
| 20260506161304 | 54 | 360 | 3.0 | 3.0 | 0.00 | 0.00 | 0.00 | 87 | 1020.3 |
| 20260506160804 | 55 | 360 | 2.0 | 3.0 | 0.00 | 0.00 | 0.00 | 87 | 1020.2 |
| 20260506160304 | 55 | 360 | 1.0 | 2.0 | 0.00 | 0.00 | 0.00 | 87 | 1020.4 |
| 20260506155604 | 54 | 360 | 0.0 | 3.0 | 0.00 | 0.00 | 0.00 | 88 | 1020.4 |
| 20260506155104 | 54 | 360 | 1.0 | 3.0 | 0.00 | 0.00 | 0.00 | 88 | 1020.2 |
| 20260506154604 | 54 | 360 | 0.0 | 5.0 | 0.00 | 0.00 | 0.00 | 88 | 1020.2 |
| 20260506154104 | 54 | 160 | 1.0 | 5.0 | 0.00 | 0.00 | 0.00 | 88 | 1020.1 |
| 20260506153604 | 54 | 208 | 1.0 | 5.0 | 0.00 | 0.00 | 0.00 | 88 | 1020.2 |
| 20260506153104 | 54 | 185 | 3.0 | 3.0 | 0.00 | 0.00 | 0.00 | 89 | 1020.2 |
| 20260506152604 | 54 | 360 | 0.0 | 1.0 | 0.00 | 0.00 | 0.00 | 89 | 1020.2 |
| 20260506151904 | 53 | 360 | 1.0 | 6.0 | 0.00 | 0.00 | 0.00 | 89 | 1020.1 |
| 20260506150804 | 53 | 360 | 2.0 | 6.0 | 0.00 | 0.00 | 0.00 | 89 | 1020.1 |
| 20260506150305 | 53 | 360 | 2.0 | 2.0 | 0.00 | 0.00 | 0.00 | 89 | 1020.0 |
| 20260506145804 | 53 | 360 | 0.0 | 4.0 | 0.00 | 0.00 | 0.00 | 89 | 1019.7 |
| 20260506145306 | 53 | 360 | 1.0 | 4.0 | 0.00 | 0.00 | 0.00 | 89 | 1019.7 |
| 20260506144804 | 53 | 360 | 4.0 | 4.0 | 0.00 | 0.00 | 0.00 | 90 | 1019.7 |
| 20260506144104 | 53 | 360 | 2.0 | 3.0 | 0.00 | 0.00 | 0.00 | 91 | 1019.3 |
| 20260506143604 | 53 | 360 | 1.0 | 3.0 | 0.00 | 0.00 | 0.00 | 91 | 1019.4 |
| 20260506143104 | 53 | 360 | 1.0 | 2.0 | 0.00 | 0.00 | 0.00 | 91 | 1019.6 |
| 20260506142604 | 53 | 299 | 0.0 | 2.0 | 0.00 | 0.00 | 0.00 | 91 | 1019.6 |
| 20260506142104 | 53 | 270 | 0.0 | 2.0 | 0.00 | 0.00 | 0.00 | 91 | 1019.9 |
| 20260506141604 | 53 | 269 | 0.0 | 2.0 | 0.00 | 0.00 | 0.00 | 91 | 1020.1 |
| 20260506141104 | 52 | 269 | 0.0 | 2.0 | 0.00 | 0.00 | 0.00 | 91 | 1019.7 |
| 20260506140604 | 52 | 360 | 0.0 | 1.0 | 0.00 | 0.00 | 0.00 | 92 | 1020.0 |
| 20260506140104 | 52 | 360 | 0.0 | 1.0 | 0.00 | 0.00 | 0.00 | 92 | 1019.9 |
| 20260506135604 | 52 | 360 | 0.0 | 0.0 | 0.00 | 0.00 | 0.00 | 92 | 1020.1 |
| 20260506135104 | 52 | 360 | 0.0 | 0.0 | 0.00 | 0.00 | 0.00 | 92 | 1019.9 |
| 20260506134604 | 52 | 360 | 0.0 | 1.0 | 0.00 | 0.00 | 0.00 | 92 | 1019.8 |
| 20260506134104 | 52 | 360 | 0.0 | 3.0 | 0.00 | 0.00 | 0.00 | 91 | 1019.8 |
| 20260506133604 | 52 | 360 | 0.0 | 3.0 | 0.00 | 0.00 | 0.00 | 91 | 1019.8 |
| 20260506133104 | 52 | 360 | 3.0 | 3.0 | 0.00 | 0.00 | 0.00 | 91 | 1019.8 |
| 20260506132604 | 52 | 360 | 2.0 | 2.0 | 0.00 | 0.00 | 0.00 | 91 | 1019.7 |
| 20260506132104 | 52 | 360 | 0.0 | 1.0 | 0.00 | 0.00 | 0.00 | 91 | 1019.5 |
| 20260506131504 | 52 | 360 | 0.0 | 2.0 | 0.00 | 0.00 | 0.00 | 91 | 1019.5 |
| 20260506131004 | 52 | 360 | 0.0 | 3.0 | 0.00 | 0.00 | 0.00 | 91 | 1019.3 |
| 20260506130303 | 52 | 360 | 0.0 | 3.0 | 0.00 | 0.00 | 0.00 | 90 | 1019.4 |
| 20260506125604 | 52 | 360 | 2.0 | 3.0 | 0.00 | 0.00 | 0.00 | 91 | 1019.5 |
| 20260506125104 | 52 | 360 | 0.0 | 3.0 | 0.00 | 0.00 | 0.00 | 91 | 1019.4 |
| 20260506124604 | 52 | 360 | 1.0 | 3.0 | 0.00 | 0.00 | 0.00 | 91 | 1019.3 |
| 20260506124104 | 52 | 360 | 1.0 | 2.0 | 0.00 | 0.00 | 0.00 | 91 | 1019.1 |
| 20260506123604 | 52 | 360 | 1.0 | 2.0 | 0.00 | 0.00 | 0.00 | 91 | 1019.2 |
| 20260506123104 | 52 | 360 | 2.0 | 4.0 | 0.00 | 0.00 | 0.00 | 92 | 1019.1 |
| 20260506122604 | 52 | 360 | 2.0 | 4.0 | 0.00 | 0.00 | 0.00 | 92 | 1019.0 |
| 20260506122104 | 52 | 360 | 0.0 | 1.0 | 0.00 | 0.00 | 0.00 | 92 | 1019.0 |
| 20260506121604 | 52 | 360 | 0.0 | 1.0 | 0.00 | 0.00 | 0.00 | 92 | 1019.1 |
| 20260506121104 | 52 | 360 | 0.0 | 1.0 | 0.00 | 0.00 | 0.00 | 92 | 1019.1 |
| 20260506120604 | 52 | 360 | 0.0 | 2.0 | 0.00 | 0.00 | 0.00 | 92 | 1019.1 |
| 20260506120104 | 52 | 360 | 1.0 | 2.0 | 0.00 | 0.00 | 0.00 | 92 | 1018.9 |
| 20260506115604 | 52 | 360 | 0.0 | 1.0 | 0.00 | 0.00 | 0.00 | 92 | 1019.0 |
| 20260506115104 | 52 | 360 | 1.0 | 2.0 | 0.00 | 0.00 | 0.00 | 91 | 1018.9 |
| 20260506114604 | 52 | 360 | 0.0 | 2.0 | 0.00 | 0.00 | 0.00 | 91 | 1018.8 |
| 20260506114005 | 52 | 360 | 2.0 | 2.0 | 0.00 | 0.00 | 0.00 | 91 | 1018.8 |
| 20260506113504 | 52 | 360 | 0.0 | 4.0 | 0.00 | 0.00 | 0.00 | 91 | 1018.8 |
| 20260506112905 | 52 | 360 | 1.0 | 4.0 | 0.00 | 0.00 | 0.00 | 91 | 1018.7 |
| 20260506112404 | 52 | 360 | 3.0 | 4.0 | 0.00 | 0.00 | 0.00 | 91 | 1018.8 |
| 20260506111904 | 52 | 360 | 4.0 | 4.0 | 0.00 | 0.00 | 0.00 | 91 | 1018.9 |
| 20260506111404 | 52 | 360 | 1.0 | 4.0 | 0.00 | 0.00 | 0.00 | 92 | 1018.9 |
| 20260506110904 | 52 | 360 | 2.0 | 3.0 | 0.00 | 0.00 | 0.00 | 92 | 1018.8 |
| 20260506110404 | 52 | 360 | 0.0 | 3.0 | 0.00 | 0.00 | 0.00 | 91 | 1018.8 |
| 20260506105904 | 52 | 360 | 1.0 | 3.0 | 0.00 | 0.00 | 0.00 | 91 | 1018.7 |
| 20260506105404 | 52 | 360 | 3.0 | 3.0 | 0.00 | 0.00 | 0.00 | 91 | 1018.6 |
| 20260506104904 | 52 | 360 | 3.0 | 3.0 | 0.00 | 0.00 | 0.00 | 91 | 1018.5 |
| 20260506104204 | 52 | 360 | 0.0 | 3.0 | 0.00 | 0.00 | 0.00 | 91 | 1018.5 |
| 20260506103704 | 53 | 360 | 2.0 | 2.0 | 0.00 | 0.00 | 0.00 | 91 | 1018.3 |
| 20260506103004 | 53 | 360 | 1.0 | 2.0 | 0.00 | 0.00 | 0.00 | 91 | 1018.3 |
| 20260506102504 | 53 | 360 | 2.0 | 5.0 | 0.00 | 0.00 | 0.00 | 91 | 1018.3 |
| 20260506102004 | 53 | 360 | 0.0 | 5.0 | 0.00 | 0.00 | 0.00 | 91 | 1018.3 |
| 20260506101504 | 53 | 360 | 3.0 | 4.0 | 0.00 | 0.00 | 0.00 | 91 | 1018.3 |
| 20260506101004 | 53 | 360 | 3.0 | 4.0 | 0.00 | 0.00 | 0.00 | 92 | 1018.3 |
| 20260506100104 | 53 | 360 | 2.0 | 4.0 | 0.00 | 0.00 | 0.00 | 92 | 1018.2 |
| 20260506095604 | 53 | 360 | 4.0 | 4.0 | 0.00 | 0.00 | 0.00 | 92 | 1018.1 |
| 20260506095104 | 53 | 360 | 1.0 | 4.0 | 0.00 | 0.00 | 0.00 | 92 | 1018.1 |
| 20260506094604 | 53 | 360 | 2.0 | 4.0 | 0.00 | 0.00 | 0.00 | 92 | 1018.0 |
| 20260506094104 | 53 | 360 | 3.0 | 4.0 | 0.00 | 0.00 | 0.00 | 93 | 1018.1 |
| 20260506093604 | 53 | 360 | 3.0 | 4.0 | 0.00 | 0.00 | 0.00 | 93 | 1017.9 |
| 20260506093009 | 53 | 360 | 3.0 | 3.0 | 0.00 | 0.00 | 0.00 | 93 | 1017.9 |
| 20260506092306 | 53 | 360 | 2.0 | 3.0 | 0.00 | 0.00 | 0.00 | 94 | 1017.9 |
| 20260506091705 | 53 | 360 | 2.0 | 3.0 | 0.00 | 0.00 | 0.00 | 94 | 1017.8 |
| 20260506091204 | 53 | 360 | 1.0 | 2.0 | 0.00 | 0.00 | 0.00 | 94 | 1017.9 |
| 20260506090705 | 53 | 360 | 0.0 | 4.0 | 0.00 | 0.00 | 0.00 | 94 | 1017.9 |
| 20260506090004 | 53 | 360 | 2.0 | 4.0 | 0.00 | 0.00 | 0.00 | 94 | 1017.8 |
| 20260506085306 | 53 | 360 | 4.0 | 4.0 | 0.00 | 0.00 | 0.00 | 94 | 1017.8 |
| 20260506084504 | 53 | 360 | 1.0 | 3.0 | 0.00 | 0.00 | 0.00 | 94 | 1017.7 |
| 20260506084004 | 54 | 360 | 3.0 | 3.0 | 0.00 | 0.00 | 0.00 | 94 | 1017.7 |
| 20260506083504 | 54 | 360 | 1.0 | 3.0 | 0.00 | 0.00 | 0.00 | 94 | 1017.7 |
| 20260506083004 | 54 | 360 | 1.0 | 4.0 | 0.00 | 0.00 | 0.00 | 93 | 1017.7 |
| 20260506082504 | 54 | 360 | 2.0 | 4.0 | 0.00 | 0.00 | 0.00 | 93 | 1017.7 |
| 20260506081904 | 54 | 360 | 1.0 | 3.0 | 0.00 | 0.00 | 0.00 | 93 | 1017.7 |
| 20260506081404 | 54 | 360 | 2.0 | 3.0 | 0.00 | 0.00 | 0.00 | 93 | 1017.7 |
| 20260506080904 | 54 | 360 | 2.0 | 3.0 | 0.00 | 0.00 | 0.00 | 93 | 1017.5 |
| 20260506073304 | 54 | 360 | 2.0 | 3.0 | 0.00 | 0.00 | 0.00 | 92 | 1017.1 |
| 20260506072604 | 54 | 360 | 2.0 | 3.0 | 0.00 | 0.00 | 0.00 | 92 | 1017.2 |
| 20260506071904 | 54 | 360 | 1.0 | 1.0 | 0.00 | 0.00 | 0.00 | 93 | 1017.3 |
| 20260506070904 | 54 | 360 | 1.0 | 1.0 | 0.00 | 0.00 | 0.00 | 92 | 1017.2 |
| 20260506070404 | 54 | 360 | 0.0 | 2.0 | 0.00 | 0.00 | 0.00 | 93 | 1017.1 |
| 20260506062404 | 54 | 360 | 2.0 | 3.0 | 0.00 | 0.00 | 0.00 | 94 | 1017.0 |
| 20260506061904 | 54 | 360 | 0.0 | 0.0 | 0.00 | 0.00 | 0.00 | 94 | 1016.9 |
| 20260506061404 | 54 | 360 | 0.0 | 0.0 | 0.00 | 0.00 | 0.00 | 94 | 1017.0 |
| 20260506060904 | 54 | 360 | 0.0 | 0.0 | 0.00 | 0.00 | 0.00 | 94 | 1016.9 |
| 20260506060404 | 54 | 360 | 0.0 | 0.0 | 0.00 | 0.00 | 0.00 | 94 | 1016.9 |
| 20260506051104 | 53 | 360 | 1.0 | 1.0 | 0.00 | 0.00 | 0.00 | 93 | 1016.8 |
| 20260506050604 | 53 | 360 | 1.0 | 1.0 | 0.00 | 0.00 | 0.00 | 93 | 1016.9 |
| 20260506050104 | 53 | 360 | 1.0 | 2.0 | 0.00 | 0.00 | 0.00 | 93 | 1016.9 |
| 20260506044704 | 53 | 360 | 2.0 | 2.0 | 0.00 | 0.00 | 0.00 | 92 | 1016.8 |
| 20260506044204 | 53 | 360 | 2.0 | 2.0 | 0.00 | 0.00 | 0.00 | 92 | 1016.7 |
| 20260506043704 | 53 | 360 | 2.0 | 3.0 | 0.00 | 0.00 | 0.00 | 92 | 1016.7 |
| 20260506043203 | 53 | 360 | 0.0 | 3.0 | 0.00 | 0.00 | 0.00 | 91 | 1016.6 |
| 20260506042704 | 53 | 360 | 1.0 | 3.0 | 0.00 | 0.00 | 0.00 | 92 | 1016.5 |
| 20260506042204 | 53 | 360 | 2.0 | 3.0 | 0.00 | 0.00 | 0.00 | 91 | 1016.4 |
| 20260506041404 | 54 | 360 | 2.0 | 3.0 | 0.00 | 0.00 | 0.00 | 92 | 1016.4 |
| 20260506040904 | 53 | 360 | 1.0 | 2.0 | 0.00 | 0.00 | 0.00 | 92 | 1016.3 |
| 20260506040404 | 53 | 360 | 1.0 | 2.0 | 0.00 | 0.00 | 0.00 | 91 | 1016.2 |
| 20260506035904 | 53 | 360 | 2.0 | 2.0 | 0.00 | 0.00 | 0.00 | 90 | 1015.9 |
| 20260506035306 | 54 | 360 | 1.0 | 2.0 | 0.00 | 0.00 | 0.00 | 88 | 1016.0 |
| 20260506034804 | 55 | 360 | 0.0 | 2.0 | 0.00 | 0.00 | 0.00 | 87 | 1015.9 |
| 20260506034304 | 56 | 225 | 1.0 | 2.0 | 0.00 | 0.00 | 0.00 | 86 | 1015.8 |
| 20260506033804 | 56 | 360 | 0.0 | 1.0 | 0.00 | 0.00 | 0.00 | 86 | 1015.8 |
| 20260506033304 | 57 | 360 | 0.0 | 1.0 | 0.00 | 0.00 | 0.00 | 85 | 1015.6 |
| 20260506032709 | 57 | 360 | 0.0 | 1.0 | 0.00 | 0.00 | 0.00 | 85 | 1015.6 |
| 20260506032204 | 58 | 226 | 0.0 | 1.0 | 0.00 | 0.00 | 0.00 | 85 | 1015.5 |
| 20260506031704 | 58 | 226 | 1.0 | 1.0 | 0.00 | 0.00 | 0.00 | 84 | 1015.5 |
| 20260506031204 | 59 | 226 | 0.0 | 1.0 | 0.00 | 0.00 | 0.00 | 83 | 1015.4 |
| 20260506030704 | 59 | 360 | 1.0 | 2.0 | 0.00 | 0.00 | 0.00 | 82 | 1015.2 |
| 20260506030204 | 60 | 360 | 1.0 | 2.0 | 0.00 | 0.00 | 0.00 | 82 | 1015.2 |
| 20260506025704 | 60 | 360 | 1.0 | 2.0 | 0.00 | 0.00 | 0.00 | 81 | 1015.2 |
| 20260506025005 | 61 | 360 | 2.0 | 2.0 | 0.00 | 0.00 | 0.00 | 80 | 1015.1 |
| 20260506024504 | 61 | 360 | 2.0 | 2.0 | 0.00 | 0.00 | 0.00 | 79 | 1015.0 |
| 20260506024005 | 61 | 360 | 1.0 | 4.0 | 0.00 | 0.00 | 0.00 | 80 | 1015.0 |
| 20260506023504 | 61 | 236 | 2.0 | 4.0 | 0.00 | 0.00 | 0.00 | 78 | 1014.9 |